Tracking 25709 objects as of 23-May-2022
HD Live streaming from Space Station
objects crossing your sky now

DELTA 1 DEB

Track DELTA 1 DEB now!
10-day predictions


NORAD ID: 14497
Int'l Code: 1977-065FN
Perigee: 946.9 km
Apogee: 2,379.2 km
Inclination: 29.3 °
Period: 119.4 minutes
Semi major axis: 8034 km
RCS: 0.1116 m2 (medium)
Launch date: July 14, 1977
Source: United States (US)
Launch site: AIR FORCE EASTERN TEST RANGE (AFETR)

Note: This is SATELLITE DEBRIS
aabbcc
Your satellite tracking list
Your tracking list is empty




NASA's NSSDC Master Catalog

Two Line Element Set (TLE):
1 14497U 77065FN  22142.38292666  .00001037  00000-0  34680-2 0  9997
2 14497  29.2913 163.0903 0891347  24.2127 358.3866 12.05595213801365
Source of the keplerian elements: AFSPC